date,airt,f.airt,airtmax,f.airtmax,airtmin,f.airtmin,prec,f.prec
1964-01-01,7, ,21, ,-6, ,0, 
1964-01-02,19, ,32, ,7, ,0.25, 
1964-01-03,28, ,34, ,25, ,0, 
1964-01-04,36, ,43, ,28, ,0, 
1964-01-05,32, ,39, ,25, ,0, 
1964-01-06,21, ,34, ,10, ,0, 
1964-01-07,30, ,39, ,21, ,0, 
1964-01-08,23, ,37, ,10, ,0, 
1964-01-09,21, ,30, ,12, ,0.4, 
1964-01-10,25, ,34, ,16, ,0, 
1964-01-11,25, ,34, ,18, ,0, 
1964-01-12,12, ,25, ,0, ,0, 
1964-01-13,9, ,12, ,5, ,0.3, 
1964-01-14,7, ,12, ,1, ,0, 
1964-01-15,3, ,12, ,-8, ,0, 
1964-01-16,12, ,25, ,0, ,0, 
1964-01-17,21, ,30, ,12, ,0, 
1964-01-18,18, ,30, ,5, ,0, 
1964-01-19,23, ,34, ,10, ,0, 
1964-01-20,37, ,43, ,30, ,1.8, 
1964-01-21,NA,M,NA,M,NA,M,NA,M
1964-01-22,NA,M,NA,M,NA,M,NA,M
1964-01-23,28,Q,41,Q,16,Q,0, 
1964-01-24,34, ,41, ,25, ,0, 
1964-01-25,41, ,52, ,32, ,0, 
1964-01-26,37, ,48, ,27, ,0.85, 
1964-01-27,27, ,37, ,16, ,0, 
1964-01-28,28, ,36, ,23, ,0.25, 
1964-01-29,12, ,19, ,5, ,0, 
1964-01-30,16, ,27, ,7, ,0, 
1964-01-31,16, ,28, ,1, ,0, 
1964-02-01,19, ,30, ,9, ,0.25, 
1964-02-02,30, ,34, ,28, ,0.05, 
1964-02-03,21, ,34, ,9, ,0, 
1964-02-04,10, ,19, ,1, ,0, 
1964-02-05,27, ,37, ,18, ,0, 
1964-02-06,27, ,39, ,14, ,0, 
1964-02-07,30, ,34, ,27, ,0.45, 
1964-02-08,27, ,30, ,21, ,0, 
1964-02-09,23, ,30, ,16, ,0, 
1964-02-10,9, ,25, ,-8, ,0, 
1964-02-11,9, ,23, ,-4, ,0, 
1964-02-12,16, ,27, ,5, ,0, 
1964-02-13,23, ,36, ,10, ,0, 
1964-02-14,27, ,36, ,19, ,0, 
1964-02-15,23, ,36, ,10, ,0, 
1964-02-16,27, ,36, ,18, ,0, 
1964-02-17,16, ,27, ,5, ,0.6, 
1964-02-18,12, ,27, ,-2, ,0, 
1964-02-19,18, ,36, ,0, ,NA,M
1964-02-20,23, ,25, ,21, ,0, 
1964-02-21,27, ,36, ,18, ,0, 
1964-02-22,12, ,25, ,0, ,0, 
1964-02-23,10, ,27, ,-6, ,0, 
1964-02-24,21, ,34, ,10, ,0, 
1964-02-25,12, ,34, ,-8, ,0, 
1964-02-26,19, ,28, ,12, ,0, 
1964-02-27,27, ,41, ,10, ,0, 
1964-02-28,10, ,25, ,-6, ,0, 
1964-02-29,27, ,36, ,19, ,0, 
1964-03-01,30, ,37, ,21, ,0, 
1964-03-02,32, ,43, ,21, ,0, 
1964-03-03,37, ,52, ,21, ,0, 
1964-03-04,43, ,57, ,27, ,0, 
1964-03-05,46, ,55, ,37, ,0.3, 
1964-03-06,41, ,55, ,28, ,0, 
1964-03-07,28, ,39, ,18, ,0, 
1964-03-08,36, ,45, ,27, ,0, 
1964-03-09,34, ,37, ,30, ,0, 
1964-03-10,37, ,46, ,30, ,1.2, 
1964-03-11,25, ,30, ,18, ,0, 
1964-03-12,23, ,28, ,18, ,0, 
1964-03-13,23, ,32, ,12, ,0, 
1964-03-14,30, ,39, ,19, ,0, 
1964-03-15,NA,M,NA,M,NA,M,0, 
1964-03-16,39,Q,48,Q,28,Q,0, 
1964-03-17,34, ,41, ,25, ,0, 
1964-03-18,NA,M,NA,M,NA,M,0, 
1964-03-19,23,Q,32,Q,12,Q,0, 
1964-03-20,28, ,36, ,21, ,0, 
1964-03-21,34, ,43, ,25, ,0, 
1964-03-22,32, ,43, ,21, ,0, 
1964-03-23,30, ,36, ,25, ,0, 
1964-03-24,30, ,43, ,16, ,0, 
1964-03-25,39, ,46, ,30, ,0.15, 
1964-03-26,50, ,64, ,34, ,0, 
1964-03-27,30, ,36, ,27, ,0.35, 
1964-03-28,30, ,45, ,18, ,0, 
1964-03-29,NA,M,NA,M,NA,M,0.6, 
1964-03-30,34,Q,46,Q,19,Q,0, 
1964-03-31,25, ,36, ,12, ,0, 
1964-04-01,18, ,28, ,7, ,0, 
1964-04-02,25, ,37, ,12, ,0, 
1964-04-03,34, ,43, ,25, ,0.2, 
1964-04-04,NA,M,NA,M,25, ,0, 
1964-04-05,27,Q,37,Q,16, ,0, 
1964-04-06,34, ,45, ,21, ,0, 
1964-04-07,43, ,50, ,34, ,0.55, 
1964-04-08,46, ,52, ,41, ,0.1, 
1964-04-09,39, ,50, ,28, ,0, 
1964-04-10,32, ,39, ,25, ,0, 
1964-04-11,43, ,55, ,28, ,0, 
1964-04-12,41, ,55, ,27, ,0, 
1964-04-13,45, ,63, ,28, ,0, 
1964-04-14,54, ,63, ,45, ,0.75, 
1964-04-15,52, ,57, ,46, ,0.1, 
1964-04-16,41, ,52, ,30, ,0, 
1964-04-17,41, ,54, ,30, ,0, 
1964-04-18,52, ,66, ,37, ,0, 
1964-04-19,59, ,79, ,39, ,0.2, 
1964-04-20,43, ,54, ,30, ,0.35, 
1964-04-21,34, ,36, ,30, ,0, 
1964-04-22,37, ,45, ,30, ,0.3, 
1964-04-23,39, ,46, ,34, ,0, 
1964-04-24,43, ,57, ,30, ,0.05, 
1964-04-25,41, ,46, ,36, ,0,T
1964-04-26,41, ,48, ,32, ,0, 
1964-04-27,52, ,64, ,37, ,0, 
1964-04-28,57, ,72, ,43, ,0, 
1964-04-29,48, ,61, ,36, ,0, 
1964-04-30,41, ,50, ,34, ,0, 
1964-05-01,46, ,63, ,30, ,0, 
1964-05-02,43, ,61, ,27, ,0, 
1964-05-03,43, ,61, ,27, ,0, 
1964-05-04,50, ,70, ,30, ,0, 
1964-05-05,57, ,75, ,39, ,0, 
1964-05-06,52, ,70, ,36, ,0, 
1964-05-07,57, ,73, ,41, ,0, 
1964-05-08,66, ,82, ,50, ,0.05, 
1964-05-09,70, ,81, ,59, ,0, 
1964-05-10,66, ,82, ,52, ,0.1, 
1964-05-11,55, ,64, ,45, ,0, 
1964-05-12,55, ,70, ,39, ,0, 
1964-05-13,61, ,70, ,54, ,0,T
1964-05-14,57, ,66, ,48, ,0.25, 
1964-05-15,46, ,52, ,43, ,0.35, 
1964-05-16,52, ,64, ,39, ,0, 
1964-05-17,57, ,75, ,41, ,0, 
1964-05-18,57, ,72, ,43, ,0, 
1964-05-19,55, ,70, ,39, ,0.75, 
1964-05-20,64, ,79, ,52, ,0, 
1964-05-21,45, ,61, ,28, ,0, 
1964-05-22,52, ,61, ,43, ,0, 
1964-05-23,64, ,77, ,52, ,0, 
1964-05-24,73, ,90, ,57, ,0, 
1964-05-25,73, ,86, ,61, ,0, 
1964-05-26,52, ,64, ,39, ,0, 
1964-05-27,63, ,73, ,50, ,0, 
1964-05-28,55, ,70, ,39, ,0, 
1964-05-29,48, ,61, ,36, ,0, 
1964-05-30,48, ,61, ,36, ,0, 
1964-05-31,55, ,68, ,43, ,0, 
1964-06-01,54, ,64, ,45, ,0, 
1964-06-02,55, ,64, ,46, ,0, 
1964-06-03,52, ,68, ,36, ,0, 
1964-06-04,57, ,70, ,43, ,0, 
1964-06-05,48, ,63, ,34, ,0, 
1964-06-06,61, ,72, ,48, ,0,T
1964-06-07,64, ,70, ,57, ,0.1, 
1964-06-08,61, ,66, ,54, ,0.2, 
1964-06-09,64, ,75, ,55, ,0, 
1964-06-10,63, ,81, ,46, ,0.05, 
1964-06-11,59, ,72, ,45, ,0, 
1964-06-12,59, ,79, ,39, ,0, 
1964-06-13,63, ,77, ,46, ,0, 
1964-06-14,64, ,81, ,48, ,0, 
1964-06-15,63, ,75, ,48, ,0.25, 
1964-06-16,61, ,75, ,46, ,0, 
1964-06-17,55, ,72, ,39, ,0, 
1964-06-18,61, ,75, ,46, ,0, 
1964-06-19,68, ,79, ,59, ,0, 
1964-06-20,73, ,90, ,57, ,1.4, 
1964-06-21,73, ,84, ,63, ,0, 
1964-06-22,66, ,81, ,54, ,0, 
1964-06-23,70, ,81, ,61, ,0, 
1964-06-24,68, ,81, ,54, ,0.35, 
1964-06-25,59, ,72, ,46, ,0, 
1964-06-26,66, ,77, ,55, ,0, 
1964-06-27,63, ,79, ,46, ,0, 
1964-06-28,61, ,77, ,46, ,0, 
1964-06-29,70, ,81, ,61, ,0, 
1964-06-30,77, ,91, ,61, ,0, 
1964-07-01,75, ,93, ,57, ,0, 
1964-07-02,70, ,79, ,63, ,0.35, 
1964-07-03,72, ,81, ,63, ,0.6, 
1964-07-04,64, ,75, ,54, ,0, 
1964-07-05,63, ,73, ,52, ,0.05, 
1964-07-06,68, ,86, ,52, ,0, 
1964-07-07,66, ,81, ,52, ,0, 
1964-07-08,70, ,81, ,61, ,0.05, 
1964-07-09,68, ,81, ,55, ,0.1, 
1964-07-10,66, ,79, ,54, ,0, 
1964-07-11,70, ,81, ,61, ,0, 
1964-07-12,64, ,70, ,59, ,0, 
1964-07-13,61, ,64, ,57, ,0.2, 
1964-07-14,66, ,75, ,57, ,0.35, 
1964-07-15,68, ,82, ,54, ,0, 
1964-07-16,68, ,81, ,55, ,0, 
1964-07-17,73, ,84, ,63, ,0, 
1964-07-18,77, ,86, ,66, ,0, 
1964-07-19,75, ,90, ,63, ,0, 
1964-07-20,64, ,79, ,52, ,0, 
1964-07-21,73, ,82, ,63, ,0, 
1964-07-22,73, ,77, ,70, ,0, 
1964-07-23,66, ,82, ,52, ,0, 
1964-07-24,NA,M,NA,M,NA,M,0, 
1964-07-25,NA,M,NA,M,NA,M,0, 
1964-07-26,NA,M,NA,M,NA,M,0, 
1964-07-27,NA,M,NA,M,NA,M,0, 
1964-07-28,79,Q,88,Q,70,Q,0, 
1964-07-29,70, ,84, ,54, ,1.3, 
1964-07-30,59, ,75, ,43, ,0, 
1964-07-31,57, ,73, ,41, ,0, 
1964-08-01,64, ,73, ,55, ,0, 
1964-08-02,57, ,68, ,46, ,0, 
1964-08-03,55, ,68, ,43, ,0, 
1964-08-04,64, ,75, ,54, ,0, 
1964-08-05,61, ,73, ,48, ,0, 
1964-08-06,57, ,72, ,43, ,0, 
1964-08-07,66, ,75, ,59, ,0, 
1964-08-08,57, ,73, ,43, ,0.1, 
1964-08-09,52, ,64, ,39, ,0, 
1964-08-10,61, ,72, ,52, ,0, 
1964-08-11,63, ,72, ,52, ,0.05, 
1964-08-12,61, ,73, ,48, ,1.05, 
1964-08-13,48, ,61, ,37, ,0, 
1964-08-14,54, ,64, ,43, ,0, 
1964-08-15,52, ,64, ,41, ,0, 
1964-08-16,61, ,73, ,46, ,0, 
1964-08-17,63, ,73, ,52, ,0, 
1964-08-18,63, ,73, ,52, ,0, 
1964-08-19,55, ,70, ,39, ,0, 
1964-08-20,55, ,70, ,41, ,0, 
1964-08-21,57, ,64, ,52, ,0, 
1964-08-22,55, ,57, ,54, ,0.25, 
1964-08-23,57, ,61, ,54, ,0.1, 
1964-08-24,64, ,81, ,50, ,0, 
1964-08-25,70, ,79, ,61, ,0, 
1964-08-26,59, ,75, ,43, ,0.05, 
1964-08-27,61, ,75, ,46, ,0, 
1964-08-28,64, ,77, ,54, ,0, 
1964-08-29,73, ,81, ,64, ,0, 
1964-08-30,75, ,86, ,66, ,0, 
1964-08-31,64, ,73, ,54, ,0.2, 
1964-09-01,55, ,72, ,39, ,0, 
1964-09-02,57, ,72, ,43, ,0, 
1964-09-03,63, ,72, ,54, ,0, 
1964-09-04,70, ,81, ,57, ,0,T
1964-09-05,61, ,73, ,46, ,0, 
1964-09-06,59, ,73, ,45, ,0, 
1964-09-07,63, ,75, ,52, ,0, 
1964-09-08,70, ,79, ,59, ,0, 
1964-09-09,70, ,79, ,61, ,0.08, 
1964-09-10,70, ,77, ,63, ,0,T
1964-09-11,68, ,82, ,54, ,0.4, 
1964-09-12,52, ,64, ,37, ,0, 
1964-09-13,50, ,59, ,39, ,0, 
1964-09-14,48, ,61, ,37, ,0, 
1964-09-15,46, ,63, ,28, ,0, 
1964-09-16,52, ,63, ,43, ,0, 
1964-09-17,57, ,72, ,45, ,0, 
1964-09-18,59, ,75, ,45, ,0, 
1964-09-19,48, ,64, ,30, ,0, 
1964-09-20,48, ,64, ,30, ,0, 
1964-09-21,55, ,66, ,43, ,0, 
1964-09-22,NA,M,NA,M,NA,M,0.05, 
1964-09-23,64,Q,75,Q,52,Q,0,T
1964-09-24,55, ,73, ,37, ,0, 
1964-09-25,48, ,61, ,36, ,0, 
1964-09-26,57, ,70, ,46, ,0.05, 
1964-09-27,57, ,70, ,45, ,0, 
1964-09-28,48, ,55, ,41, ,0.3, 
1964-09-29,46, ,50, ,45, ,0, 
1964-09-30,46, ,59, ,36, ,0, 
1964-10-01,48, ,61, ,36, ,0, 
1964-10-02,54, ,63, ,45, ,0, 
1964-10-03,52, ,64, ,39, ,0.2, 
1964-10-04,54, ,66, ,39, ,0, 
1964-10-05,37, ,52, ,25, ,0, 
1964-10-06,43, ,55, ,30, ,0, 
1964-10-07,45, ,63, ,27, ,0, 
1964-10-08,43, ,54, ,32, ,0, 
1964-10-09,48, ,57, ,39, ,0, 
1964-10-10,39, ,54, ,27, ,0, 
1964-10-11,43, ,57, ,27, ,0, 
1964-10-12,45, ,63, ,27, ,0, 
1964-10-13,45, ,54, ,34, ,0, 
1964-10-14,45, ,61, ,28, ,0, 
1964-10-15,54, ,75, ,34, ,0, 
1964-10-16,61, ,79, ,43, ,0, 
1964-10-17,54, ,57, ,50, ,0, 
1964-10-18,54, ,66, ,43, ,0.27, 
1964-10-19,46, ,57, ,36, ,0.05, 
1964-10-20,39, ,46, ,30, ,0, 
1964-10-21,43, ,55, ,30, ,0.8, 
1964-10-22,39, ,54, ,27, ,0, 
1964-10-23,34, ,46, ,19, ,0, 
1964-10-24,39, ,48, ,30, ,0, 
1964-10-25,46, ,59, ,34, ,0, 
1964-10-26,55, ,70, ,41, ,0, 
1964-10-27,57, ,73, ,39, ,0, 
1964-10-28,61, ,73, ,48, ,0, 
1964-10-29,52, ,64, ,39, ,0, 
1964-10-30,45, ,64, ,25, ,0.05, 
1964-10-31,34, ,46, ,21, ,0, 
1964-11-01,41, ,55, ,28, ,0, 
1964-11-02,41, ,54, ,28, ,0, 
1964-11-03,43, ,57, ,28, ,0, 
1964-11-04,41, ,55, ,27, ,0, 
1964-11-05,46, ,54, ,39, ,0, 
1964-11-06,41, ,50, ,34, ,0.1, 
1964-11-07,39, ,54, ,27, ,0, 
1964-11-08,43, ,57, ,28, ,0, 
1964-11-09,45, ,57, ,30, ,0, 
1964-11-10,46, ,57, ,36, ,0, 
1964-11-11,37, ,46, ,30, ,0.06, 
1964-11-12,54, ,63, ,45, ,0, 
1964-11-13,52, ,66, ,37, ,0, 
1964-11-14,39, ,57, ,23, ,0, 
1964-11-15,41, ,48, ,32, ,0, 
1964-11-16,37, ,43, ,30, ,0, 
1964-11-17,NA,M,NA,M,NA,M,0.06, 
1964-11-18,NA,M,NA,M,NA,M,0, 
1964-11-19,NA,M,NA,M,NA,M,0, 
1964-11-20,NA,M,NA,M,NA,M,0.5, 
1964-11-21,NA,M,NA,M,NA,M,0.08, 
1964-11-22,NA,M,NA,M,NA,M,0, 
1964-11-23,NA,M,NA,M,NA,M,0, 
1964-11-24,NA,M,NA,M,NA,M,0, 
1964-11-25,NA,M,NA,M,NA,M,0, 
1964-11-26,NA,M,NA,M,NA,M,1.06, 
1964-11-27,34,Q,45,Q,23,Q,0.05, 
1964-11-28,34, ,43, ,25, ,0, 
1964-11-29,34, ,45, ,25, ,0.3, 
1964-11-30,21, ,28, ,14, ,0, 
1964-12-01,16, ,21, ,9, ,0, 
1964-12-02,21, ,28, ,12, ,0.01, 
1964-12-03,27, ,34, ,21, ,0.04, 
1964-12-04,25, ,28, ,19, ,0.25, 
1964-12-05,21, ,23, ,19, ,0.5, 
1964-12-06,16, ,23, ,9, ,0.5, 
1964-12-07,9, ,19, ,-4, ,0, 
1964-12-08,16, ,25, ,7, ,0, 
1964-12-09,14, ,25, ,1, ,0.05, 
1964-12-10,19, ,28, ,10, ,0,T
1964-12-11,NA,M,NA,M,NA,M,NA,M
1964-12-12,28,Q,45,Q,14,Q,0.2,Q
1964-12-13,34, ,41, ,27, ,0,T
1964-12-14,27, ,36, ,18, ,0, 
1964-12-15,16, ,28, ,3, ,0, 
1964-12-16,21, ,34, ,9, ,0, 
1964-12-17,32, ,39, ,25, ,0, 
1964-12-18,12, ,25, ,0, ,0.05, 
1964-12-19,12, ,19, ,7, ,0, 
1964-12-20,19, ,27, ,12, ,0, 
1964-12-21,21, ,28, ,12, ,0.1, 
1964-12-22,27, ,34, ,21, ,0,T
1964-12-23,36, ,37, ,32, ,0, 
1964-12-24,43, ,48, ,37, ,0,T
1964-12-25,50, ,57, ,45, ,0, 
1964-12-26,50, ,57, ,45, ,0, 
1964-12-27,34, ,45, ,25, ,0.75,Q
1964-12-28,19, ,27, ,12, ,1.15, 
1964-12-29,21, ,28, ,16, ,0, 
1964-12-30,30, ,36, ,27, ,0,T
1964-12-31,25, ,36, ,14, ,0,T
1965-01-01,NA,M,NA,M,NA,M,0, 
1965-01-02,14,Q,25,Q,3,Q,0, 
1965-01-03,18, ,21, ,12, ,0.05, 
1965-01-04,23, ,27, ,19, ,0, 
1965-01-05,21, ,30, ,12, ,0, 
1965-01-06,27, ,32, ,21, ,0, 
1965-01-07,23, ,37, ,9, ,0, 
1965-01-08,25, ,30, ,18, ,0.2, 
1965-01-09,37, ,43, ,30, ,0, 
1965-01-10,34, ,45, ,25, ,0.05, 
1965-01-11,18, ,21, ,12, ,0, 
1965-01-12,25, ,34, ,14, ,0, 
1965-01-13,25, ,36, ,16, ,0, 
1965-01-14,0, ,18, ,-17, ,0.05, 
1965-01-15,-2, ,9, ,-11, ,0, 
1965-01-16,0, ,1, ,0, ,0,T
1965-01-17,-2, ,3, ,-8, ,0.1, 
1965-01-18,3, ,9, ,-2, ,0, 
1965-01-19,12, ,19, ,7, ,0,T
1965-01-20,14, ,25, ,3, ,0,T
1965-01-21,18, ,27, ,9, ,0.05, 
1965-01-22,27, ,41, ,12, ,0, 
1965-01-23,NA,M,NA,M,NA,M,0, 
1965-01-24,NA,M,NA,M,NA,M,0.4, 
1965-01-25,30,Q,48,Q,10,Q,0.3, 
1965-01-26,27, ,32, ,19, ,0, 
1965-01-27,18, ,27, ,9, ,0.15, 
1965-01-28,5, ,10, ,0, ,0, 
1965-01-29,NA,M,NA,M,NA,M,0, 
1965-01-30,NA,M,NA,M,NA,M,0, 
1965-01-31,NA,M,NA,M,NA,M,0, 
1965-02-01,10,Q,16,Q,7,Q,0, 
1965-02-02,7, ,12, ,0, ,0.18, 
1965-02-03,3, ,14, ,-8, ,0, 
1965-02-04,0, ,12, ,-11, ,0, 
1965-02-05,18, ,30, ,5, ,0, 
1965-02-06,27, ,36, ,18, ,0.1, 
1965-02-07,34, ,39, ,27, ,0, 
1965-02-08,27, ,41, ,12, ,1, 
1965-02-09,30, ,34, ,27, ,0, 
1965-02-10,NA,M,NA,M,NA,M,0, 
1965-02-11,30,Q,36,Q,25,Q,0, 
1965-02-12,28, ,32, ,27, ,0.05, 
1965-02-13,19, ,34, ,7, ,0, 
1965-02-14,12, ,16, ,9, ,0, 
1965-02-15,16, ,19, ,12, ,0, 
1965-02-16,19, ,19, ,18, ,0, 
1965-02-17,16, ,19, ,10, ,0, 
1965-02-18,21, ,28, ,16, ,0,T
1965-02-19,16, ,19, ,14, ,0,T
1965-02-20,0, ,1, ,0, ,0, 
1965-02-21,9, ,16, ,1, ,0, 
1965-02-22,12, ,16, ,10, ,0.2, 
1965-02-23,3, ,5, ,1, ,0, 
1965-02-24,7, ,16, ,0, ,0, 
1965-02-25,NA,M,NA,M,7, ,0.6, 
1965-02-26,NA,M,NA,M,21, ,0, 
1965-02-27,NA,M,NA,M,9, ,0,T
1965-02-28,NA,M,NA,M,14, ,0, 
1965-03-01,NA,M,NA,M,18, ,0, 
1965-03-02,NA,M,NA,M,23, ,0, 
1965-03-03,NA,M,NA,M,28, ,0, 
1965-03-04,NA,M,NA,M,27, ,0, 
1965-03-05,NA,M,NA,M,34, ,0.16, 
1965-03-06,NA,M,NA,M,30, ,0,T
1965-03-07,NA,M,NA,M,32, ,0, 
1965-03-08,NA,M,NA,M,28, ,0, 
1965-03-09,NA,M,NA,M,30, ,0, 
1965-03-10,NA,M,NA,M,27, ,0, 
1965-03-11,NA,M,NA,M,27, ,0, 
1965-03-12,NA,M,NA,M,10, ,0, 
1965-03-13,NA,M,NA,M,14, ,0, 
1965-03-14,NA,M,NA,M,19, ,0, 
1965-03-15,NA,M,NA,M,25, ,0, 
1965-03-16,NA,M,NA,M,16, ,0,T
1965-03-17,NA,M,NA,M,21, ,0,T
1965-03-18,NA,M,NA,M,27, ,0,T
1965-03-19,NA,M,NA,M,30, ,0.05, 
1965-03-20,NA,M,NA,M,18, ,0.13, 
1965-03-21,16,Q,21,Q,10, ,0.02, 
1965-03-22,18, ,25, ,9, ,0, 
1965-03-23,27, ,37, ,18, ,0.3, 
1965-03-24,30, ,39, ,21, ,0, 
1965-03-25,25, ,36, ,12, ,0, 
1965-03-26,36, ,45, ,25, ,0.3, 
1965-03-27,30, ,34, ,28, ,0, 
1965-03-28,27, ,36, ,16, ,0, 
1965-03-29,32, ,45, ,19, ,0.35, 
1965-03-30,21, ,25, ,19, ,0, 
1965-03-31,21, ,32, ,10, ,0, 
1965-04-01,21, ,30, ,12, ,0, 
1965-04-02,28, ,45, ,12, ,0, 
1965-04-03,32, ,43, ,21, ,0, 
1965-04-04,30, ,43, ,19, ,0, 
1965-04-05,37, ,48, ,27, ,0, 
1965-04-06,43, ,57, ,27, ,0, 
1965-04-07,45, ,59, ,30, ,0, 
1965-04-08,39, ,46, ,34, ,0, 
1965-04-09,36, ,45, ,27, ,0, 
1965-04-10,39, ,52, ,28, ,0, 
1965-04-11,41, ,55, ,27, ,0, 
1965-04-12,46, ,57, ,34, ,0.45, 
1965-04-13,41, ,46, ,36, ,0,T
1965-04-14,36, ,41, ,28, ,0, 
1965-04-15,39, ,55, ,21, ,0.2, 
1965-04-16,46, ,55, ,39, ,0.7, 
1965-04-17,43, ,54, ,34, ,0,T
1965-04-18,39, ,48, ,30, ,0.25, 
1965-04-19,39, ,45, ,32, ,0, 
1965-04-20,37, ,45, ,28, ,0, 
1965-04-21,43, ,57, ,30, ,0, 
1965-04-22,52, ,61, ,41, ,0, 
1965-04-23,43, ,57, ,27, ,0.15, 
1965-04-24,39, ,48, ,28, ,0, 
1965-04-25,36, ,46, ,23, ,0, 
1965-04-26,45, ,57, ,34, ,0.4, 
1965-04-27,39, ,43, ,36, ,0,T
1965-04-28,45, ,46, ,41, ,0, 
1965-04-29,45, ,59, ,28, ,0, 
1965-04-30,50, ,66, ,34, ,0, 
1965-05-01,52, ,73, ,32, ,0, 
1965-05-02,50, ,68, ,30, ,0, 
1965-05-03,55, ,72, ,39, ,0, 
1965-05-04,61, ,73, ,46, ,0, 
1965-05-05,57, ,77, ,36, ,0, 
1965-05-06,48, ,66, ,30, ,0, 
1965-05-07,52, ,72, ,30, ,0.05, 
1965-05-08,45, ,52, ,39, ,0, 
1965-05-09,54, ,64, ,43, ,0,T
1965-05-10,66, ,79, ,54, ,0, 
1965-05-11,63, ,84, ,43, ,0, 
1965-05-12,57, ,75, ,41, ,0, 
1965-05-13,NA,M,NA,M,NA,M,0, 
1965-05-14,57,Q,75,Q,37,Q,0, 
1965-05-15,50, ,66, ,34, ,0, 
1965-05-16,61, ,75, ,46, ,0.05, 
1965-05-17,70, ,82, ,59, ,0.45, 
1965-05-18,57, ,73, ,43, ,0,T
1965-05-19,54, ,61, ,46, ,0, 
1965-05-20,57, ,64, ,50, ,0, 
1965-05-21,59, ,75, ,41, ,0, 
1965-05-22,55, ,70, ,43, ,0.03, 
1965-05-23,61, ,73, ,48, ,0, 
1965-05-24,48, ,64, ,32, ,0, 
1965-05-25,54, ,70, ,39, ,0, 
1965-05-26,66, ,79, ,54, ,0, 
1965-05-27,68, ,88, ,48, ,0.45, 
1965-05-28,70, ,84, ,55, ,0, 
1965-05-29,61, ,77, ,45, ,0.05, 
1965-05-30,48, ,63, ,34, ,0, 
1965-05-31,48, ,64, ,34, ,0, 
1965-06-01,52, ,68, ,36, ,0, 
1965-06-02,59, ,70, ,50, ,1, 
1965-06-03,48, ,57, ,41, ,0, 
1965-06-04,52, ,64, ,37, ,0, 
1965-06-05,55, ,70, ,43, ,0, 
1965-06-06,61, ,79, ,45, ,0, 
1965-06-07,70, ,82, ,55, ,0, 
1965-06-08,75, ,88, ,63, ,0,T
1965-06-09,73, ,82, ,64, ,0.5, 
1965-06-10,70, ,82, ,57, ,0, 
1965-06-11,61, ,79, ,43, ,0, 
1965-06-12,57, ,72, ,41, ,0.25, 
1965-06-13,66, ,77, ,54, ,0.15, 
1965-06-14,52, ,59, ,45, ,0, 
1965-06-15,48, ,55, ,43, ,0, 
1965-06-16,48, ,61, ,37, ,0, 
1965-06-17,54, ,70, ,39, ,0, 
1965-06-18,55, ,70, ,41, ,0.07, 
1965-06-19,57, ,72, ,45, ,0.25, 
1965-06-20,61, ,75, ,46, ,0, 
1965-06-21,68, ,82, ,54, ,0, 
1965-06-22,73, ,86, ,59, ,0, 
1965-06-23,66, ,82, ,52, ,0.35, 
1965-06-24,75, ,84, ,64, ,0, 
1965-06-25,57, ,73, ,43, ,0, 
1965-06-26,55, ,72, ,39, ,0, 
1965-06-27,59, ,73, ,45, ,0, 
1965-06-28,64, ,77, ,50, ,0, 
1965-06-29,72, ,84, ,61, ,0,T
1965-06-30,72, ,84, ,59, ,0, 
1965-07-01,61, ,75, ,46, ,0, 
1965-07-02,61, ,75, ,46, ,0, 
1965-07-03,66, ,79, ,54, ,0.2, 
1965-07-04,61, ,70, ,52, ,0, 
1965-07-05,66, ,79, ,54, ,0, 
1965-07-06,68, ,81, ,55, ,0, 
1965-07-07,55, ,70, ,41, ,0, 
1965-07-08,64, ,73, ,54, ,0.1, 
1965-07-09,64, ,81, ,48, ,0, 
1965-07-10,75, ,86, ,64, ,0.05, 
1965-07-11,66, ,79, ,54, ,0, 
1965-07-12,64, ,75, ,52, ,0, 
1965-07-13,66, ,81, ,52, ,0, 
1965-07-14,73, ,82, ,63, ,0.1, 
1965-07-15,77, ,90, ,64, ,0, 
1965-07-16,64, ,81, ,48, ,0, 
1965-07-17,68, ,82, ,54, ,0.05, 
1965-07-18,73, ,86, ,61, ,2.25, 
1965-07-19,63, ,72, ,55, ,0, 
1965-07-20,57, ,73, ,43, ,0, 
1965-07-21,57, ,72, ,43, ,0, 
1965-07-22,61, ,73, ,46, ,0, 
1965-07-23,68, ,79, ,57, ,0, 
1965-07-24,68, ,75, ,63, ,0, 
1965-07-25,75, ,84, ,64, ,0, 
1965-07-26,72, ,86, ,55, ,0, 
1965-07-27,66, ,81, ,52, ,0, 
1965-07-28,61, ,75, ,46, ,0,T
1965-07-29,63, ,77, ,48, ,0, 
1965-07-30,61, ,75, ,46, ,0, 
1965-07-31,61, ,75, ,46, ,0, 
1965-08-01,66, ,79, ,54, ,0, 
1965-08-02,68, ,77, ,59, ,0,T
1965-08-03,63, ,70, ,55, ,0, 
1965-08-04,59, ,75, ,45, ,0, 
1965-08-05,64, ,75, ,54, ,0, 
1965-08-06,66, ,79, ,54, ,0, 
1965-08-07,73, ,84, ,63, ,0, 
1965-08-08,77, ,90, ,64, ,0,T
1965-08-09,75, ,82, ,70, ,1.2, 
1965-08-10,77, ,88, ,66, ,0.1, 
1965-08-11,70, ,81, ,59, ,0, 
1965-08-12,63, ,77, ,46, ,0, 
1965-08-13,70, ,81, ,57, ,0.1, 
1965-08-14,70, ,81, ,57, ,0, 
1965-08-15,72, ,82, ,61, ,0, 
1965-08-16,75, ,84, ,64, ,0, 
1965-08-17,77, ,88, ,66, ,0, 
1965-08-18,72, ,79, ,66, ,0.25, 
1965-08-19,73, ,79, ,68, ,0.25, 
1965-08-20,66, ,79, ,55, ,0, 
1965-08-21,59, ,73, ,46, ,0, 
1965-08-22,64, ,73, ,54, ,0.15, 
1965-08-23,61, ,66, ,55, ,0, 
1965-08-24,57, ,73, ,43, ,0, 
1965-08-25,59, ,73, ,45, ,0, 
1965-08-26,64, ,75, ,52, ,0.13, 
1965-08-27,61, ,66, ,57, ,0, 
1965-08-28,70, ,79, ,61, ,0, 
1965-08-29,61, ,81, ,39, ,0, 
1965-08-30,46, ,59, ,32, ,0, 
1965-08-31,46, ,61, ,30, ,0, 
1965-09-01,52, ,57, ,46, ,0.6, 
1965-09-02,57, ,66, ,48, ,0.05, 
1965-09-03,57, ,72, ,45, ,0, 
1965-09-04,59, ,72, ,45, ,0, 
1965-09-05,59, ,77, ,41, ,0, 
1965-09-06,57, ,72, ,45, ,0, 
1965-09-07,64, ,79, ,52, ,0, 
1965-09-08,64, ,77, ,54, ,0.1, 
1965-09-09,57, ,68, ,46, ,0, 
1965-09-10,63, ,72, ,54, ,0.1, 
1965-09-11,73, ,82, ,63, ,0, 
1965-09-12,57, ,68, ,45, ,0,T
1965-09-13,52, ,57, ,46, ,0.65, 
1965-09-14,48, ,54, ,45, ,0, 
1965-09-15,52, ,61, ,45, ,0,T
1965-09-16,59, ,66, ,52, ,0, 
1965-09-17,59, ,70, ,48, ,0,T
1965-09-18,57, ,66, ,50, ,0,T
1965-09-19,64, ,75, ,54, ,0.3, 
1965-09-20,57, ,61, ,54, ,0, 
1965-09-21,66, ,75, ,57, ,0, 
1965-09-22,73, ,82, ,66, ,0, 
1965-09-23,73, ,82, ,64, ,0, 
1965-09-24,72, ,81, ,63, ,0.3, 
1965-09-25,61, ,70, ,54, ,0.2, 
1965-09-26,57, ,63, ,52, ,0, 
1965-09-27,52, ,68, ,36, ,0, 
1965-09-28,50, ,55, ,43, ,0, 
1965-09-29,46, ,55, ,39, ,0,T
1965-09-30,52, ,59, ,43, ,0,T
1965-10-01,55, ,63, ,48, ,0.8, 
1965-10-02,46, ,59, ,32, ,0, 
1965-10-03,46, ,63, ,32, ,0, 
1965-10-04,34, ,43, ,27, ,0, 
1965-10-05,30, ,41, ,21, ,0, 
1965-10-06,37, ,48, ,27, ,0, 
1965-10-07,50, ,63, ,37, ,0.3, 
1965-10-08,57, ,73, ,43, ,0.65, 
1965-10-09,50, ,63, ,37, ,0, 
1965-10-10,46, ,57, ,34, ,0.1, 
1965-10-11,52, ,59, ,45, ,0, 
1965-10-12,46, ,57, ,34, ,0.25, 
1965-10-13,37, ,55, ,18, ,0, 
1965-10-14,46,Q,64, ,30,Q,0,T
1965-10-15,52, ,61, ,43, ,0.1, 
1965-10-16,43, ,57, ,28, ,0, 
1965-10-17,43, ,57, ,30, ,0, 
1965-10-18,50, ,64, ,36, ,0, 
1965-10-19,63, ,79, ,46, ,0, 
1965-10-20,59, ,75, ,43, ,0, 
1965-10-21,57, ,72, ,43, ,0, 
1965-10-22,54,Q,57, ,50,Q,0.4, 
1965-10-23,59, ,70, ,48, ,0.05, 
1965-10-24,57, ,72, ,43, ,0, 
1965-10-25,39, ,48, ,30, ,0, 
1965-10-26,46, ,57, ,36, ,0, 
1965-10-27,41, ,48, ,34, ,0, 
1965-10-28,34, ,45, ,25, ,0, 
1965-10-29,34, ,41, ,27, ,0, 
1965-10-30,43, ,52, ,34, ,0, 
1965-10-31,48, ,64, ,34, ,0, 
1965-11-01,34, ,48, ,18, ,0, 
1965-11-02,28, ,36, ,19, ,0.05, 
1965-11-03,41, ,54, ,28, ,0, 
1965-11-04,39, ,61, ,18, ,0, 
1965-11-05,34, ,43, ,27, ,0, 
1965-11-06,45, ,57, ,32, ,0, 
1965-11-07,39, ,50, ,30, ,0.15, 
1965-11-08,41, ,48, ,34, ,0.2, 
1965-11-09,32, ,48, ,16, ,0.05, 
1965-11-10,28, ,39, ,18, ,0, 
1965-11-11,32, ,43, ,21, ,0, 
1965-11-12,37, ,45, ,30, ,0, 
1965-11-13,43, ,52, ,36, ,0.05, 
1965-11-14,30, ,39, ,19, ,0, 
1965-11-15,32, ,39, ,25, ,0, 
1965-11-16,39, ,48, ,32, ,0,T
1965-11-17,32, ,43, ,21, ,0.25, 
1965-11-18,36, ,43, ,30, ,0, 
1965-11-19,28, ,37, ,18, ,0, 
1965-11-20,34, ,45, ,23, ,0, 
1965-11-21,37, ,46, ,30, ,0.05, 
1965-11-22,34, ,37, ,30, ,0, 
1965-11-23,32, ,41, ,23, ,0.25, 
1965-11-24,34, ,36, ,30, ,0.05, 
1965-11-25,37, ,43, ,32, ,0,T
1965-11-26,39, ,45, ,32, ,0, 
1965-11-27,36, ,43, ,27, ,1.05, 
1965-11-28,32, ,43, ,21, ,0, 
1965-11-29,25, ,36, ,16, ,0, 
1965-11-30,23, ,34, ,12, ,0, 
1965-12-01,27, ,37, ,18, ,0, 
1965-12-02,32, ,39, ,23, ,0, 
1965-12-03,34, ,41, ,28, ,0, 
1965-12-04,36, ,45, ,27, ,0,T
1965-12-05,32, ,37, ,28, ,0, 
1965-12-06,28, ,37, ,19, ,0,T
1965-12-07,19, ,30, ,10, ,0, 
1965-12-08,27, ,34, ,19, ,0, 
1965-12-09,30, ,39, ,19, ,0, 
1965-12-10,32, ,43, ,21, ,0, 
1965-12-11,25, ,30, ,19, ,0.05, 
1965-12-12,27, ,34, ,21, ,0.15, 
1965-12-13,30, ,34, ,27, ,0.65, 
1965-12-14,32, ,34, ,30, ,0, 
1965-12-15,32, ,34, ,30, ,0, 
1965-12-16,32, ,37, ,27, ,0, 
1965-12-17,23, ,32, ,16, ,0.05, 
1965-12-18,25, ,32, ,19, ,0,T
1965-12-19,10, ,21, ,0, ,0, 
1965-12-20,12, ,19, ,3, ,0, 
1965-12-21,19, ,28, ,10, ,0, 
1965-12-22,27, ,36, ,19, ,0, 
1965-12-23,32, ,37, ,27, ,0,T
1965-12-24,41, ,46, ,34, ,0, 
1965-12-25,34, ,52, ,18, ,0.9, 
1965-12-26,12, ,19, ,5, ,0.05, 
1965-12-27,16, ,21, ,10, ,0, 
1965-12-28,23, ,30, ,16, ,0, 
1965-12-29,30, ,37, ,25, ,0, 
1965-12-30,37, ,45, ,30, ,0, 
1965-12-31,48, ,55, ,39, ,0, 
1966-01-01,45, ,55, ,36, ,0,T
1966-01-02,27, ,32, ,21, ,0.4, 
1966-01-03,27, ,34, ,19, ,0.15, 
1966-01-04,25, ,36, ,16, ,0, 
1966-01-05,30, ,43, ,18, ,0, 
1966-01-06,27, ,34, ,21, ,0.15, 
1966-01-07,30, ,36, ,25, ,0.05, 
1966-01-08,14, ,27, ,1, ,0.4, 
1966-01-09,14, ,27, ,1, ,0, 
1966-01-10,25, ,36, ,12, ,0, 
1966-01-11,12, ,27, ,-2, ,0, 
1966-01-12,12, ,30, ,-4, ,0, 
1966-01-13,18, ,27, ,7, ,0, 
1966-01-14,19, ,30, ,9, ,0,T
1966-01-15,10, ,28, ,-8, ,0, 
1966-01-16,12, ,27, ,0, ,0, 
1966-01-17,19, ,28, ,12, ,0, 
1966-01-18,25, ,34, ,18, ,0, 
1966-01-19,27, ,28, ,23, ,0,T
1966-01-20,30, ,34, ,27, ,0,T
1966-01-21,28, ,36, ,19, ,0.05, 
1966-01-22,28, ,37, ,19, ,0, 
1966-01-23,27, ,30, ,23, ,0.55, 
1966-01-24,18, ,28, ,7, ,0.1, 
1966-01-25,14, ,27, ,1, ,0, 
1966-01-26,14, ,30, ,0, ,0, 
1966-01-27,16, ,25, ,7, ,0.05, 
1966-01-28,12, ,21, ,1, ,0, 
1966-01-29,18, ,25, ,12, ,0, 